Location: Holcomb Observatory and Planetarium
(39.8415°N, 86.1714°W)
Time: 15:35:40
(UTC-04:00)

Hubble Space Telescope - Visible Passes

Search period start: 27 May 2018 00:00
Search period end: 06 June 2018 00:00
Orbit: 537 x 541 km, 28.5° (Epoch: 27 May)

Date Brightness Start Highest point End Pass type
(mag) Time Alt. Az. Time Alt. Az. Time Alt. Az.
28 May 3.1 05:41:08 10° S 05:42:14 11° SSE 05:43:21 10° SSE visible
29 May 3.0 05:30:00 10° SSW 05:31:46 12° SSE 05:33:32 10° SE visible
30 May 2.8 05:19:18 10° SSW 05:21:18 14° S 05:23:27 10° SE visible
31 May 2.7 05:09:23 13° SSW 05:10:51 15° S 05:13:14 10° SE visible
01 Jun 2.6 04:59:28 15° S 05:00:23 16° S 05:02:57 10° SE visible
02 Jun 2.5 04:49:38 16° S 04:49:56 17° S 04:52:36 10° SE visible
03 Jun 2.5 04:39:52 17° S 04:39:52 17° S 04:42:11 10° SE visible
04 Jun 2.7 04:30:12 15° SSE 04:30:12 15° SSE 04:31:42 10° SE visible
05 Jun 3.0 04:20:41 12° SSE 04:20:41 12° SSE 04:21:12 10° SE visible
